Location: Unnamed
(51.6619°N, 39.1980°E)
Time: 05:46:48
(UTC+03:00)

ISS - Visible Passes

Search period start: 18 May 2021 00:00
Search period end: 28 May 2021 00:00
Orbit: 417 x 422 km, 51.6° (Epoch: 17 May)

Date Brightness Start Highest point End Pass type
(mag) Time Alt. Az. Time Alt. Az. Time Alt. Az.
18 May -3.8 00:46:52 10° W 00:49:59 63° SW 00:49:59 63° SW visible
18 May -3.9 22:22:35 10° W 22:25:58 85° S 22:29:21 10° E visible
18 May -3.9 23:59:25 10° W 00:02:47 79° SSW 00:03:33 51° ESE visible
19 May -1.2 01:36:22 10° W 01:36:28 11° W 01:36:28 11° W visible
19 May -3.8 21:35:09 10° WSW 21:38:31 74° SSE 21:41:53 10° E visible
19 May -3.9 23:11:56 10° W 23:15:20 88° S 23:17:21 22° E visible
20 May -2.1 00:48:48 10° W 00:50:16 22° W 00:50:16 22° W visible
20 May -3.8 22:24:28 10° W 22:27:51 88° N 22:31:14 10° E visible
21 May -3.4 00:01:18 10° W 00:04:10 48° SW 00:04:10 48° SW visible
21 May -3.8 21:36:59 10° W 21:40:22 89° N 21:43:45 10° E visible
21 May -3.8 23:13:49 10° W 23:17:10 66° SSW 23:18:07 42° SE visible
22 May -1.1 00:50:58 10° W 00:51:03 10° W 00:51:03 10° W visible
22 May -3.9 22:26:20 10° W 22:29:43 79° S 22:32:06 18° ESE visible
23 May -2.1 00:03:18 10° W 00:05:02 22° WSW 00:05:02 22° WSW visible
23 May -3.8 21:38:51 10° W 21:42:14 88° S 21:45:37 10° E visible
23 May -3.2 23:15:43 10° W 23:18:53 39° SSW 23:19:02 39° SSW visible
24 May -3.5 22:28:12 10° W 22:31:29 52° SSW 22:33:04 26° SE visible
25 May -1.2 00:05:47 10° WSW 00:06:00 11° WSW 00:06:00 11° WSW visible
25 May -3.7 21:40:42 10° W 21:44:03 66° SSW 21:47:07 12° ESE visible
25 May -2.1 23:17:52 10° W 23:20:04 20° SW 23:20:04 20° SW visible
26 May -2.6 22:30:10 10° W 22:33:08 29° SSW 22:34:09 24° S visible
27 May -3.0 21:42:34 10° W 21:45:45 39° SSW 21:48:15 15° SE visible
